Palacios, TX

5:59 PM CST on January 17, 2017 (GMT -0600)
Palacios Municipal

Weather History for KPSX - October, 2012

Change the Weather History Date:

Sunday, October 21, 2012

  Actual Average Record
Temperature  
Mean Temperature 82 °F -  
Max Temperature 88 °F 80 °F 90 °F (1947)
Min Temperature 78 °F 60 °F 40 °F (1976)
Cooling Degree Days 18    
Growing Degree Days 32 (Base 50)    
Moisture  
Dew Point 73 °F    
Average Humidity 77    
Maximum Humidity 87    
Minimum Humidity 61    
Precipitation  
Precipitation 0.00 in - - ()
Sea Level Pressure  
Sea Level Pressure 29.92 in    
Wind  
Wind Speed 12 mph (SSE)    
Max Wind Speed 21 mph    
Max Gust Speed 77 mph    
Visibility 8 miles    
Events      
Averages and records for this station are not official NWS values.
T = Trace of Precipitation, MM = Missing Value Source: NWS Daily Summary

Daily Weather History Graph

Daily Weather History Graph

Search for Another Location

Airport or City:

Trip Planner

Search our weather history database for the weather conditions in past years. The results will help you decide how hot, cold, wet, or windy it might be!

Date:

Astronomy

Oct. 21, 2012 Rise Set
Actual Time 7:29 AM CDT 6:48 PM CDT
Civil Twilight 7:05 AM CDT 7:12 PM CDT
Nautical Twilight 6:38 AM CDT 7:40 PM CDT
Astronomical Twilight 6:10 AM CDT 8:07 PM CDT
Moon 1:42 PM CDT (10/21) No Moon Set
Length of Visible Light 12h 06m
Length of Day
11h 18m
Waxing Crescent, 45% of the Moon is Illuminated
Oct 21
Waxing Crescent
Oct 21
First Quarter
Oct 29
Full
Nov 6
Last Quarter
Nov 13
New

Hourly Weather History & Observations

Time (CDT) Temp. Heat Index Dew Point Humidity Pressure Visibility Wind Dir Wind Speed Gust Speed Precip Events Conditions
1:53 AM 79.0 °F - 73.9 °F 84% 29.89 in 8.0 mi SSE 11.5 mph - N/A   Mostly Cloudy
2:14 AM 78.8 °F - 73.4 °F 83% 29.88 in 8.0 mi SSE 11.5 mph - N/A   Mostly Cloudy
2:53 AM 79.0 °F - 73.9 °F 84% 29.88 in 7.0 mi SSE 10.4 mph - N/A   Partly Cloudy
3:53 AM 78.1 °F - 73.9 °F 87% 29.88 in 7.0 mi SSE 9.2 mph - N/A   Clear
4:49 AM 78.8 °F - 73.4 °F 83% 29.89 in 7.0 mi SSE 9.2 mph - N/A   Mostly Cloudy
4:53 AM 79.0 °F - 73.9 °F 84% 29.89 in 7.0 mi SSE 10.4 mph - N/A   Mostly Cloudy
5:19 AM 78.8 °F - 73.4 °F 83% 29.89 in 7.0 mi SSE 8.1 mph - N/A   Scattered Clouds
5:27 AM 78.8 °F - 73.4 °F 83% 29.89 in 7.0 mi SSE 8.1 mph - N/A   Mostly Cloudy
5:38 AM 78.8 °F - 73.4 °F 83% 29.89 in 7.0 mi SSE 9.2 mph - N/A   Scattered Clouds
5:53 AM 78.1 °F - 73.9 °F 87% 29.90 in 7.0 mi SSE 8.1 mph - N/A   Clear
6:53 AM 78.1 °F - 73.9 °F 87% 29.91 in 7.0 mi SSE 8.1 mph - N/A   Clear
7:53 AM 78.1 °F - 73.9 °F 87% 29.93 in 6.0 mi SSE 9.2 mph - N/A   Clear
8:53 AM 81.0 °F 86.2 °F 73.9 °F 79% 29.95 in 7.0 mi SSE 11.5 mph - N/A   Clear
9:53 AM 84.0 °F 91.2 °F 73.9 °F 72% 29.97 in 9.0 mi SSE 16.1 mph - N/A   Clear
10:53 AM 84.9 °F 92.1 °F 73.9 °F 69% 29.97 in 9.0 mi SSE 16.1 mph - N/A   Partly Cloudy
11:53 AM 87.1 °F 95.4 °F 73.9 °F 65% 29.97 in 9.0 mi SSE 17.3 mph 23.0 mph N/A   Scattered Clouds
12:53 PM 87.1 °F 94.5 °F 73.0 °F 63% 29.96 in 10.0 mi SSE 18.4 mph 24.2 mph N/A   Mostly Cloudy
1:53 PM 87.1 °F 94.5 °F 73.0 °F 63% 29.94 in 10.0 mi South 18.4 mph 25.3 mph N/A   Scattered Clouds
2:53 PM 87.1 °F 93.6 °F 72.0 °F 61% 29.93 in 10.0 mi SSE 16.1 mph 23.0 mph N/A   Partly Cloudy
3:53 PM 86.0 °F 92.2 °F 72.0 °F 63% 29.92 in 10.0 mi SSE 16.1 mph - N/A   Partly Cloudy
4:53 PM 84.9 °F 90.7 °F 72.0 °F 65% 29.92 in 10.0 mi SSE 13.8 mph 24.2 mph N/A   Clear
5:53 PM 82.9 °F 88.0 °F 72.0 °F 69% 29.92 in 10.0 mi SE 17.3 mph 21.9 mph N/A   Partly Cloudy
6:53 PM 81.0 °F 85.2 °F 72.0 °F 74% 29.92 in 8.0 mi SE 12.7 mph - N/A   Clear
7:53 PM 80.1 °F 84.2 °F 73.0 °F 79% 29.94 in 9.0 mi SE 20.7 mph 77.1 mph N/A   Clear
8:53 PM 80.1 °F 84.2 °F 73.0 °F 79% 29.94 in 9.0 mi SE 11.5 mph - N/A   Clear
9:53 PM 79.0 °F - 73.0 °F 82% 29.95 in 9.0 mi SE 11.5 mph - N/A   Clear
10:53 PM 79.0 °F - 73.9 °F 84% 29.96 in 8.0 mi SE 11.5 mph - N/A   Clear
11:53 PM 80.1 °F 84.5 °F 73.9 °F 81% 29.95 in 8.0 mi SE 10.4 mph - N/A   Scattered Clouds